Weather History for El Centro, CA

Change the Weather History Date:

Sunday, August 24, 2014

  Actual Average Record
Temperature  
Mean Temperature 88 °F -  
Max Temperature 102 °F 103 °F 120 °F (2005)
Min Temperature 73 °F 79 °F 73 °F (2014)
Cooling Degree Days 22    
Growing Degree Days 38 (Base 50)    
Moisture  
Dew Point 31 °F    
Average Humidity 14    
Maximum Humidity 22    
Minimum Humidity 6    
Precipitation  
Precipitation 0.00 in - - ()
Sea Level Pressure  
Sea Level Pressure 29.77 in    
Wind  
Wind Speed 9 mph (SW)    
Max Wind Speed 14 mph    
Max Gust Speed -    
Visibility 10 miles    
Events      
Averages and records for this station are not official NWS values.
T = Trace of Precipitation, MM = Missing Value Source: NWS Daily Summary

Daily Weather History Graph

Daily Weather History Graph

Search for Another Location

Airport:

Trip Planner

Search our weather history database for the weather conditions in past years. The results will help you decide how hot, cold, wet, or windy it might be!

Date:

Astronomy

Aug. 24, 2014 Rise Set
Actual Time 6:12 AM PDT 7:17 PM PDT
Civil Twilight 5:46 AM PDT 7:42 PM PDT
Nautical Twilight 5:16 AM PDT 8:12 PM PDT
Astronomical Twilight 4:44 AM PDT 8:44 PM PDT
Moon 5:26 AM PDT (8/24) 6:39 PM PDT (8/24)
Length of Visible Light 13h 56m
Length of Day
13h 05m
Waning Crescent, 1% of the Moon is Illuminated
Aug 24
Waning Crescent
Aug 25
New
Sep 2
First Quarter
Sep 8
Full
Sep 15
Last Quarter

Hourly Weather History & Observations

Time (PDT) Temp. Dew Point Humidity Pressure Visibility Wind Dir Wind Speed Gust Speed Precip Events Conditions
12:56 AM 82.0 °F 34.0 °F 18% 29.79 in 10.0 mi West 13.8 mph - N/A   Clear
1:56 AM 81.0 °F 32.0 °F 17% 29.78 in 10.0 mi West 11.5 mph - N/A   Clear
2:56 AM 80.1 °F 30.0 °F 16% 29.78 in 10.0 mi West 13.8 mph - N/A   Clear
3:56 AM 75.9 °F 30.9 °F 19% 29.78 in 10.0 mi West 5.8 mph - N/A   Clear
4:56 AM 77.0 °F 26.1 °F 15% 29.78 in 10.0 mi WNW 10.4 mph - N/A   Clear
5:56 AM 73.9 °F 28.0 °F 18% 29.79 in 10.0 mi NW 5.8 mph - N/A   Clear
6:56 AM 77.0 °F 26.1 °F 15% 29.80 in 10.0 mi WSW 5.8 mph - N/A   Clear
7:56 AM 81.0 °F 30.0 °F 16% 29.81 in 10.0 mi West 4.6 mph - N/A   Clear
8:56 AM 89.1 °F 25.0 °F 10% 29.83 in 10.0 mi NNW 3.5 mph - N/A   Clear
9:56 AM 93.0 °F 19.0 °F 7% 29.83 in 10.0 mi Calm Calm - N/A   Clear
10:56 AM 95.0 °F 21.0 °F 7% 29.82 in 10.0 mi SW 5.8 mph - N/A   Clear
11:56 AM 97.0 °F 19.0 °F 6% 29.81 in 10.0 mi Variable 3.5 mph - N/A   Clear
12:56 PM 98.1 °F 28.9 °F 9% 29.80 in 10.0 mi SE 8.1 mph - N/A   Clear
1:56 PM 99.0 °F 25.0 °F 7% 29.78 in 10.0 mi East 5.8 mph - N/A   Clear
2:56 PM 102.0 °F 30.0 °F 8% 29.75 in 10.0 mi ESE 10.4 mph - N/A   Clear
3:56 PM 102.0 °F 32.0 °F 9% 29.73 in 10.0 mi ESE 5.8 mph - N/A   Clear
4:56 PM 102.9 °F 34.0 °F 9% 29.71 in 10.0 mi SE 12.7 mph - N/A   Clear
5:56 PM 100.0 °F 37.9 °F 12% 29.70 in 10.0 mi SE 10.4 mph - N/A   Clear
6:56 PM 96.1 °F 44.1 °F 17% 29.70 in 10.0 mi ESE 9.2 mph - N/A   Clear
7:56 PM 90.0 °F 44.1 °F 20% 29.71 in 10.0 mi SSE 8.1 mph - N/A   Clear
8:56 PM 91.0 °F 43.0 °F 19% 29.75 in 10.0 mi SSW 5.8 mph - N/A   Clear
9:56 PM 87.1 °F 44.1 °F 22% 29.76 in 10.0 mi WSW 9.2 mph - N/A   Clear
10:56 PM 87.1 °F 39.9 °F 19% 29.77 in 10.0 mi West 11.5 mph - N/A   Clear
11:56 PM 87.1 °F 30.9 °F 13% 29.78 in 10.0 mi WSW 11.5 mph - N/A   Clear